Time,TemperatureF,DewpointF,PressureIn,WindDirection,WindDirectionDegrees,WindSpeedMPH,WindSpeedGustMPH,Humidity,HourlyPrecipIn,Conditions,Clouds,dailyrainin,SoftwareType,DateUTC
2013-02-23 00:01:00,67.8,63.8,29.95,SE,135,6.3,6.3,87,0.10,CLR,,0.59,WeatherDisplay:10.37,2013-02-22 13:01:00,
2013-02-23 00:06:00,68.0,64.3,29.95,ESE,112,10.4,10.4,88,0.08,CLR,,0.59,WeatherDisplay:10.37,2013-02-22 13:06:00,
2013-02-23 00:11:00,68.2,64.5,29.95,ESE,112,13.8,13.8,88,0.08,CLR,,0.59,WeatherDisplay:10.37,2013-02-22 13:11:00,
2013-02-23 00:16:00,68.2,64.5,29.95,SE,135,13.8,13.8,88,0.06,CLR,,0.59,WeatherDisplay:10.37,2013-02-22 13:16:00,
2013-02-23 00:21:00,68.4,64.7,29.95,SE,135,12.7,12.7,88,0.08,RA,,0.61,WeatherDisplay:10.37,2013-02-22 13:21:00,
2013-02-23 00:26:00,68.2,64.5,29.95,SE,135,8.1,8.1,88,0.10,RA,,0.63,WeatherDisplay:10.37,2013-02-22 13:26:00,
2013-02-23 00:31:00,68.2,64.8,29.94,SE,135,9.2,9.2,89,0.10,RA,,0.65,WeatherDisplay:10.37,2013-02-22 13:31:00,
2013-02-23 00:36:00,68.2,64.8,29.94,SE,135,13.9,13.9,89,0.12,RA,,0.67,WeatherDisplay:10.37,2013-02-22 13:36:00,
2013-02-23 00:41:00,68.2,64.8,29.94,South,180,11.5,11.5,89,0.12,RA,,0.71,WeatherDisplay:10.37,2013-02-22 13:41:00,
2013-02-23 00:46:00,68.0,64.6,29.94,East,90,17.0,17.0,89,0.16,RA,,0.73,WeatherDisplay:10.37,2013-02-22 13:46:00,
2013-02-23 00:51:00,67.8,64.5,29.94,SE,135,13.8,13.8,89,0.14,RA,,0.73,WeatherDisplay:10.37,2013-02-22 13:51:00,
2013-02-23 00:56:00,67.8,64.5,29.93,South,180,15.0,15.0,89,0.16,RA,,0.75,WeatherDisplay:10.37,2013-02-22 13:56:00,
2013-02-23 01:01:00,67.8,64.5,29.93,SE,135,13.2,13.2,89,0.16,RA,,0.75,WeatherDisplay:10.37,2013-02-22 14:01:00,
2013-02-23 01:06:00,67.8,64.5,29.93,ESE,112,16.5,16.5,89,0.16,CLR,,0.75,WeatherDisplay:10.37,2013-02-22 14:06:00,
2013-02-23 01:11:00,67.8,64.5,29.93,SSE,158,11.2,11.2,89,0.18,RA,,0.77,WeatherDisplay:10.37,2013-02-22 14:11:00,
2013-02-23 01:16:00,67.8,64.5,29.93,East,90,17.3,17.3,89,0.18,RA,,0.79,WeatherDisplay:10.37,2013-02-22 14:16:00,
2013-02-23 01:21:00,67.8,64.1,29.92,SE,135,16.1,16.1,88,0.18,RA,,0.79,WeatherDisplay:10.37,2013-02-22 14:21:00,
2013-02-23 01:26:00,67.6,64.0,29.92,SE,135,11.5,11.5,88,0.18,RA,,0.81,WeatherDisplay:10.37,2013-02-22 14:26:00,
2013-02-23 01:31:00,67.6,64.0,29.92,SE,135,16.1,16.1,88,0.16,RA,,0.81,WeatherDisplay:10.37,2013-02-22 14:31:00,
2013-02-23 01:36:00,67.6,64.3,29.92,South,180,8.1,8.1,89,0.14,CLR,,0.81,WeatherDisplay:10.37,2013-02-22 14:36:00,
2013-02-23 01:41:00,67.8,64.5,29.92,ESE,112,14.7,14.7,89,0.14,RA,,0.83,WeatherDisplay:10.37,2013-02-22 14:41:00,
2013-02-23 01:46:00,67.8,64.5,29.92,ESE,112,17.3,17.3,89,0.12,RA,,0.85,WeatherDisplay:10.37,2013-02-22 14:46:00,
2013-02-23 01:51:00,67.8,64.8,29.92,SE,135,16.1,16.1,90,0.12,RA,,0.85,WeatherDisplay:10.37,2013-02-22 14:51:00,
2013-02-23 01:56:00,67.8,64.8,29.91,SSE,158,15.0,15.0,90,0.12,RA,,0.87,WeatherDisplay:10.37,2013-02-22 14:56:00,
2013-02-23 02:01:00,67.8,64.8,29.91,ESE,112,13.8,13.8,90,0.12,RA,,0.87,WeatherDisplay:10.37,2013-02-22 15:01:00,
2013-02-23 02:06:00,67.8,64.8,29.90,SE,135,15.0,15.0,90,0.12,CLR,,0.87,WeatherDisplay:10.37,2013-02-22 15:06:00,
2013-02-23 02:11:00,67.8,64.8,29.90,ESE,112,7.2,7.2,90,0.12,RA,,0.89,WeatherDisplay:10.37,2013-02-22 15:11:00,
2013-02-23 02:16:00,67.8,64.8,29.90,SSE,158,20.8,20.8,90,0.12,RA,,0.89,WeatherDisplay:10.37,2013-02-22 15:16:00,
2013-02-23 02:21:00,68.0,65.0,29.89,ESE,112,12.7,12.7,90,0.10,CLR,,0.89,WeatherDisplay:10.37,2013-02-22 15:21:00,
2013-02-23 02:26:00,68.2,64.8,29.89,SE,135,18.4,18.4,89,0.08,CLR,,0.89,WeatherDisplay:10.37,2013-02-22 15:26:00,
2013-02-23 02:31:00,68.2,64.8,29.89,SSE,158,13.8,13.8,89,0.08,CLR,,0.89,WeatherDisplay:10.37,2013-02-22 15:31:00,
2013-02-23 02:36:00,68.2,64.8,29.89,SSE,158,16.1,16.1,89,0.10,RA,,0.92,WeatherDisplay:10.37,2013-02-22 15:36:00,
2013-02-23 02:41:00,68.0,65.0,29.89,South,180,11.5,11.5,90,0.10,RA,,0.94,WeatherDisplay:10.37,2013-02-22 15:41:00,
2013-02-23 02:46:00,67.8,64.8,29.89,SE,135,16.1,16.1,90,0.08,RA,,0.94,WeatherDisplay:10.37,2013-02-22 15:46:00,
2013-02-23 02:51:00,67.8,64.8,29.89,ESE,112,12.7,12.7,90,0.08,CLR,,0.94,WeatherDisplay:10.37,2013-02-22 15:51:00,
2013-02-23 02:56:00,68.0,65.0,29.89,ESE,112,12.7,12.7,90,0.08,RA,,0.96,WeatherDisplay:10.37,2013-02-22 15:56:00,
2013-02-23 03:01:00,68.0,65.0,29.88,SE,135,12.7,12.7,90,0.08,RA,,0.96,WeatherDisplay:10.37,2013-02-22 16:01:00,
2013-02-23 03:06:00,68.0,65.0,29.89,SE,135,17.9,17.9,90,0.08,CLR,,0.96,WeatherDisplay:10.37,2013-02-22 16:06:00,
2013-02-23 03:11:00,68.0,65.0,29.88,SE,135,18.4,18.4,90,0.08,RA,,0.98,WeatherDisplay:10.37,2013-02-22 16:11:00,
2013-02-23 03:16:00,68.0,65.0,29.88,ESE,112,17.3,17.3,90,0.08,RA,,0.98,WeatherDisplay:10.37,2013-02-22 16:16:00,
2013-02-23 03:21:00,68.0,65.0,29.88,SE,135,6.9,7.1,90,0.10,RA,,1.00,WeatherDisplay:10.37,2013-02-22 16:21:00,
2013-02-23 03:26:00,68.0,65.0,29.88,SSE,158,10.4,10.4,90,0.10,RA,,1.00,WeatherDisplay:10.37,2013-02-22 16:26:00,
2013-02-23 03:31:00,68.2,65.1,29.88,SSE,158,17.3,17.3,90,0.12,RA,,1.02,WeatherDisplay:10.37,2013-02-22 16:31:00,
2013-02-23 03:36:00,68.2,65.1,29.88,SSE,158,16.1,16.1,90,0.10,RA,,1.02,WeatherDisplay:10.37,2013-02-22 16:36:00,
2013-02-23 03:41:00,68.2,65.1,29.87,SE,135,12.7,12.7,90,0.08,CLR,,1.04,WeatherDisplay:10.37,2013-02-22 16:41:00,
2013-02-23 03:46:00,68.2,65.5,29.87,SSE,158,17.0,17.0,91,0.12,RA,,1.06,WeatherDisplay:10.37,2013-02-22 16:46:00,
2013-02-23 03:51:00,68.2,65.5,29.87,SE,135,13.8,13.8,91,0.16,RA,,1.10,WeatherDisplay:10.37,2013-02-22 16:51:00,
2013-02-23 03:56:00,68.0,65.3,29.87,SE,135,18.3,18.3,91,0.14,RA,,1.10,WeatherDisplay:10.37,2013-02-22 16:56:00,
2013-02-23 04:01:00,67.8,65.1,29.87,ESE,112,13.8,13.8,91,0.16,RA,,1.12,WeatherDisplay:10.37,2013-02-22 17:01:00,
2013-02-23 04:06:00,67.8,64.8,29.87,SSE,158,16.1,16.1,90,0.16,RA,,1.12,WeatherDisplay:10.37,2013-02-22 17:06:00,
2013-02-23 04:11:00,67.8,65.1,29.87,SE,135,16.1,16.1,91,0.18,RA,,1.16,WeatherDisplay:10.37,2013-02-22 17:11:00,
2013-02-23 04:16:00,67.8,65.1,29.86,SE,135,13.8,13.8,91,0.20,RA,,1.18,WeatherDisplay:10.37,2013-02-22 17:16:00,
2013-02-23 04:21:00,67.8,65.1,29.86,East,90,11.5,11.5,91,0.20,RA,,1.20,WeatherDisplay:10.37,2013-02-22 17:21:00,
2013-02-23 04:26:00,67.8,65.1,29.86,ESE,112,11.5,11.5,91,0.20,RA,,1.20,WeatherDisplay:10.37,2013-02-22 17:26:00,
2013-02-23 04:31:00,67.8,65.1,29.86,ESE,112,10.4,10.4,91,0.20,RA,,1.22,WeatherDisplay:10.37,2013-02-22 17:31:00,
2013-02-23 04:36:00,67.8,65.1,29.86,SSE,158,9.2,9.2,91,0.22,RA,,1.24,WeatherDisplay:10.37,2013-02-22 17:36:00,
2013-02-23 04:41:00,67.8,65.1,29.86,SE,135,17.3,17.3,91,0.24,RA,,1.26,WeatherDisplay:10.37,2013-02-22 17:41:00,
2013-02-23 04:46:00,67.8,65.1,29.86,SE,135,12.7,12.7,91,0.20,RA,,1.26,WeatherDisplay:10.37,2013-02-22 17:46:00,
2013-02-23 04:51:00,67.8,65.1,29.86,ESE,112,11.8,14.2,91,0.16,CLR,,1.28,WeatherDisplay:10.37,2013-02-22 17:51:00,
2013-02-23 04:56:00,68.0,65.6,29.86,SE,135,11.5,11.5,92,0.20,RA,,1.30,WeatherDisplay:10.37,2013-02-22 17:56:00,
2013-02-23 05:01:00,68.0,65.6,29.86,East,90,12.1,12.1,92,0.22,RA,,1.36,WeatherDisplay:10.37,2013-02-22 18:01:00,
2013-02-23 05:06:00,68.2,65.8,29.86,ESE,112,15.0,15.0,92,0.26,RA,,1.38,WeatherDisplay:10.37,2013-02-22 18:06:00,
2013-02-23 05:11:00,68.2,65.8,29.85,SE,135,11.8,11.8,92,0.22,RA,,1.38,WeatherDisplay:10.37,2013-02-22 18:11:00,
2013-02-23 05:16:00,68.2,65.8,29.86,ESE,112,12.7,12.7,92,0.20,CLR,,1.38,WeatherDisplay:10.37,2013-02-22 18:16:00,
2013-02-23 05:21:00,68.4,65.9,29.85,SSE,158,15.6,15.6,92,0.18,CLR,,1.38,WeatherDisplay:10.37,2013-02-22 18:21:00,
2013-02-23 05:26:00,68.4,65.9,29.85,South,180,11.5,11.5,92,0.18,CLR,,1.38,WeatherDisplay:10.37,2013-02-22 18:26:00,
2013-02-23 05:31:00,68.5,66.1,29.85,SE,135,16.1,16.1,92,0.16,CLR,,1.38,WeatherDisplay:10.37,2013-02-22 18:31:00,
2013-02-23 05:36:00,68.5,66.1,29.85,SE,135,9.2,9.9,92,0.14,CLR,,1.38,WeatherDisplay:10.37,2013-02-22 18:36:00,
2013-02-23 05:41:00,68.7,66.3,29.85,ESE,112,7.6,7.7,92,0.12,CLR,,1.38,WeatherDisplay:10.37,2013-02-22 18:41:00,
2013-02-23 05:46:00,68.7,66.3,29.85,SSE,158,13.8,13.8,92,0.12,CLR,,1.38,WeatherDisplay:10.37,2013-02-22 18:46:00,
2013-02-23 05:51:00,68.9,66.5,29.85,SSE,158,10.4,10.4,92,0.12,CLR,,1.38,WeatherDisplay:10.37,2013-02-22 18:51:00,
2013-02-23 05:56:00,68.9,66.5,29.85,SE,135,17.3,17.3,92,0.08,CLR,,1.38,WeatherDisplay:10.37,2013-02-22 18:56:00,
2013-02-23 06:01:00,69.1,66.3,29.85,SE,135,10.4,10.4,91,0.02,CLR,,1.38,WeatherDisplay:10.37,2013-02-22 19:01:00,
2013-02-23 06:06:00,69.1,66.3,29.85,SSE,158,11.5,11.5,91,0.00,CLR,,1.38,WeatherDisplay:10.37,2013-02-22 19:06:00,
2013-02-23 06:11:00,69.3,66.5,29.85,SE,135,18.4,18.4,91,0.00,CLR,,1.38,WeatherDisplay:10.37,2013-02-22 19:11:00,
2013-02-23 06:16:00,69.1,66.3,29.85,SE,135,13.8,13.8,91,0.00,CLR,,1.38,WeatherDisplay:10.37,2013-02-22 19:16:00,
2013-02-23 06:21:00,69.1,66.3,29.85,East,90,11.5,11.5,91,0.00,CLR,,1.38,WeatherDisplay:10.37,2013-02-22 19:21:00,
2013-02-23 06:26:00,69.1,66.3,29.85,East,90,20.7,20.7,91,0.00,CLR,,1.38,WeatherDisplay:10.37,2013-02-22 19:26:00,
2013-02-23 06:31:00,69.1,66.0,29.85,SE,135,14.1,14.1,90,0.00,CLR,,1.38,WeatherDisplay:10.37,2013-02-22 19:31:00,
2013-02-23 06:36:00,69.3,66.2,29.85,SE,135,16.1,16.1,90,0.00,CLR,,1.38,WeatherDisplay:10.37,2013-02-22 19:36:00,
2013-02-23 06:41:00,69.4,66.4,29.85,SSE,158,15.0,15.0,90,0.00,CLR,,1.38,WeatherDisplay:10.37,2013-02-22 19:41:00,
2013-02-23 06:46:00,69.4,66.4,29.85,SSE,158,18.4,18.4,90,0.00,CLR,,1.38,WeatherDisplay:10.37,2013-02-22 19:46:00,
2013-02-23 06:51:00,69.4,66.4,29.85,ESE,112,19.6,19.6,90,0.00,CLR,,1.38,WeatherDisplay:10.37,2013-02-22 19:51:00,
2013-02-23 06:56:00,69.6,66.6,29.85,ESE,112,16.1,16.1,90,0.00,CLR,,1.38,WeatherDisplay:10.37,2013-02-22 19:56:00,
2013-02-23 07:01:00,69.6,66.2,29.85,ESE,112,13.8,13.8,89,0.00,CLR,,1.38,WeatherDisplay:10.37,2013-02-22 20:01:00,
2013-02-23 07:06:00,69.6,66.2,29.85,ESE,112,11.5,11.5,89,0.00,CLR,,1.38,WeatherDisplay:10.37,2013-02-22 20:06:00,
2013-02-23 07:11:00,69.6,66.2,29.85,ESE,112,10.4,10.4,89,0.00,CLR,,1.38,WeatherDisplay:10.37,2013-02-22 20:11:00,
2013-02-23 07:16:00,70.0,66.6,29.85,NE,45,17.3,17.3,89,0.00,CLR,,1.38,WeatherDisplay:10.37,2013-02-22 20:16:00,
2013-02-23 07:21:00,70.0,66.6,29.85,SE,135,12.7,12.7,89,0.00,CLR,,1.38,WeatherDisplay:10.37,2013-02-22 20:21:00,
2013-02-23 07:26:00,70.0,66.9,29.85,SE,135,18.4,18.4,90,0.02,RA,,1.40,WeatherDisplay:10.37,2013-02-22 20:26:00,
2013-02-23 07:31:00,69.8,66.7,29.85,East,90,13.8,13.8,90,0.02,RA,,1.40,WeatherDisplay:10.37,2013-02-22 20:31:00,
2013-02-23 07:36:00,69.6,66.6,29.85,East,90,12.7,12.7,90,0.02,CLR,,1.40,WeatherDisplay:10.37,2013-02-22 20:36:00,
2013-02-23 07:41:00,69.6,66.6,29.86,East,90,18.4,18.4,90,0.02,CLR,,1.40,WeatherDisplay:10.37,2013-02-22 20:41:00,
2013-02-23 07:46:00,69.6,66.2,29.85,SE,135,17.3,17.3,89,0.02,CLR,,1.40,WeatherDisplay:10.37,2013-02-22 20:46:00,
2013-02-23 07:51:00,69.8,66.7,29.86,SE,135,16.1,16.1,90,0.02,CLR,,1.40,WeatherDisplay:10.37,2013-02-22 20:51:00,
2013-02-23 07:56:00,70.0,66.6,29.85,ESE,112,16.1,16.1,89,0.02,CLR,,1.40,WeatherDisplay:10.37,2013-02-22 20:56:00,
2013-02-23 08:01:00,70.0,66.6,29.86,SE,135,15.0,15.0,89,0.02,CLR,,1.40,WeatherDisplay:10.37,2013-02-22 21:01:00,
2013-02-23 08:06:00,70.0,66.6,29.86,SE,135,11.5,11.5,89,0.02,CLR,,1.40,WeatherDisplay:10.37,2013-02-22 21:06:00,
2013-02-23 08:11:00,70.0,66.6,29.86,ESE,112,16.1,16.1,89,0.02,CLR,,1.40,WeatherDisplay:10.37,2013-02-22 21:11:00,
2013-02-23 08:16:00,70.0,66.6,29.86,SE,135,9.2,9.2,89,0.04,RA,,1.42,WeatherDisplay:10.37,2013-02-22 21:16:00,
2013-02-23 08:21:00,70.0,66.9,29.86,ESE,112,10.4,10.4,90,0.04,RA,,1.42,WeatherDisplay:10.37,2013-02-22 21:21:00,
2013-02-23 08:26:00,69.8,66.7,29.86,SE,135,19.6,19.6,90,0.02,CLR,,1.42,WeatherDisplay:10.37,2013-02-22 21:26:00,
2013-02-23 08:31:00,70.0,66.9,29.86,South,180,9.2,9.2,90,0.02,CLR,,1.42,WeatherDisplay:10.37,2013-02-22 21:31:00,
2013-02-23 08:36:00,70.0,66.9,29.86,SE,135,15.0,15.0,90,0.02,CLR,,1.42,WeatherDisplay:10.37,2013-02-22 21:36:00,
2013-02-23 08:41:00,70.0,66.9,29.86,SE,135,11.5,11.5,90,0.04,RA,,1.44,WeatherDisplay:10.37,2013-02-22 21:41:00,
2013-02-23 08:46:00,70.2,67.1,29.86,South,180,11.5,11.5,90,0.04,RA,,1.44,WeatherDisplay:10.37,2013-02-22 21:46:00,
2013-02-23 08:51:00,70.2,67.4,29.86,ESE,112,13.8,13.8,91,0.06,RA,,1.46,WeatherDisplay:10.37,2013-02-22 21:51:00,
2013-02-23 08:56:00,70.2,67.4,29.86,ESE,112,16.1,16.1,91,0.06,RA,,1.46,WeatherDisplay:10.37,2013-02-22 21:56:00,
2013-02-23 09:01:00,70.2,67.4,29.86,SE,135,8.9,8.9,91,0.06,RA,,0.00,WeatherDisplay:10.37,2013-02-22 22:01:00,
2013-02-23 09:06:00,70.2,67.4,29.86,SE,135,16.1,16.1,91,0.08,RA,,0.02,WeatherDisplay:10.37,2013-02-22 22:06:00,
2013-02-23 09:11:00,70.3,67.6,29.86,ESE,112,12.7,12.7,91,0.10,RA,,0.04,WeatherDisplay:10.37,2013-02-22 22:11:00,
2013-02-23 09:16:00,70.3,67.6,29.87,SE,135,12.7,12.7,91,0.08,RA,,0.04,WeatherDisplay:10.37,2013-02-22 22:16:00,
2013-02-23 09:21:00,70.3,67.6,29.87,SE,135,9.2,9.2,91,0.08,CLR,,0.04,WeatherDisplay:10.37,2013-02-22 22:21:00,
2013-02-23 09:26:00,70.3,67.6,29.86,ESE,112,15.4,15.4,91,0.08,CLR,,0.04,WeatherDisplay:10.37,2013-02-22 22:26:00,
2013-02-23 09:31:00,70.3,67.6,29.86,SSE,158,16.1,16.1,91,0.08,CLR,,0.04,WeatherDisplay:10.37,2013-02-22 22:31:00,
2013-02-23 09:36:00,70.5,67.8,29.86,SE,135,17.3,17.3,91,0.08,CLR,,0.04,WeatherDisplay:10.37,2013-02-22 22:36:00,
2013-02-23 09:41:00,70.5,67.8,29.87,SE,135,13.8,13.8,91,0.08,RA,,0.06,WeatherDisplay:10.37,2013-02-22 22:41:00,
2013-02-23 09:46:00,70.5,67.8,29.86,ESE,112,10.4,10.4,91,0.08,RA,,0.06,WeatherDisplay:10.37,2013-02-22 22:46:00,
2013-02-23 09:51:00,70.5,67.8,29.86,East,90,16.1,16.1,91,0.06,CLR,,0.06,WeatherDisplay:10.37,2013-02-22 22:51:00,
2013-02-23 09:56:00,70.5,67.8,29.86,East,90,19.6,19.6,91,0.06,CLR,,0.06,WeatherDisplay:10.37,2013-02-22 22:56:00,
2013-02-23 10:01:00,70.5,67.8,29.86,SE,135,15.0,15.0,91,0.06,CLR,,0.06,WeatherDisplay:10.37,2013-02-22 23:01:00,
2013-02-23 10:06:00,70.5,67.8,29.86,East,90,15.6,15.6,91,0.04,CLR,,0.06,WeatherDisplay:10.37,2013-02-22 23:06:00,
2013-02-23 10:12:00,70.3,67.6,29.86,SSE,158,17.3,17.3,91,0.02,CLR,,0.06,WeatherDisplay:10.37,2013-02-22 23:12:00,
2013-02-23 10:17:00,70.3,67.6,29.86,SSE,158,17.3,17.3,91,0.04,RA,,0.08,WeatherDisplay:10.37,2013-02-22 23:17:00,
2013-02-23 10:22:00,70.5,67.8,29.86,SE,135,15.0,15.0,91,0.06,RA,,0.10,WeatherDisplay:10.37,2013-02-22 23:22:00,
2013-02-23 10:27:00,70.7,67.9,29.86,SSE,158,15.0,15.0,91,0.06,RA,,0.10,WeatherDisplay:10.37,2013-02-22 23:27:00,
2013-02-23 10:32:00,70.9,68.1,29.85,SSE,158,18.4,18.4,91,0.06,CLR,,0.10,WeatherDisplay:10.37,2013-02-22 23:32:00,
2013-02-23 10:37:00,70.9,68.1,29.86,SE,135,16.8,16.8,91,0.06,CLR,,0.10,WeatherDisplay:10.37,2013-02-22 23:37:00,
2013-02-23 10:42:00,70.9,68.1,29.85,SSW,202,18.4,18.4,91,0.04,CLR,,0.10,WeatherDisplay:10.37,2013-02-22 23:42:00,
2013-02-23 10:47:00,71.1,68.3,29.85,SSE,158,13.8,13.8,91,0.04,CLR,,0.10,WeatherDisplay:10.37,2013-02-22 23:47:00,
2013-02-23 10:52:00,71.1,68.3,29.85,SE,135,13.8,13.8,91,0.04,CLR,,0.10,WeatherDisplay:10.37,2013-02-22 23:52:00,
2013-02-23 10:57:00,71.1,68.3,29.85,SSE,158,13.8,13.8,91,0.04,CLR,,0.10,WeatherDisplay:10.37,2013-02-22 23:57:00,
2013-02-23 11:02:00,71.2,68.5,29.84,SE,135,11.5,11.5,91,0.04,CLR,,0.12,WeatherDisplay:10.37,2013-02-23 00:02:00,
2013-02-23 11:07:00,70.9,68.1,29.84,WSW,248,13.8,13.8,91,0.08,RA,,0.14,WeatherDisplay:10.37,2013-02-23 00:07:00,
2013-02-23 11:12:00,71.1,68.6,29.84,SE,135,13.8,13.8,92,0.10,RA,,0.16,WeatherDisplay:10.37,2013-02-23 00:12:00,
2013-02-23 11:17:00,71.2,68.8,29.83,SSE,158,18.4,18.4,92,0.08,RA,,0.16,WeatherDisplay:10.37,2013-02-23 00:17:00,
2013-02-23 11:22:00,71.2,68.8,29.83,SE,135,17.3,17.3,92,0.06,CLR,,0.16,WeatherDisplay:10.37,2013-02-23 00:22:00,
2013-02-23 11:27:00,71.2,68.8,29.83,SSE,158,15.0,15.0,92,0.06,CLR,,0.16,WeatherDisplay:10.37,2013-02-23 00:27:00,
2013-02-23 11:32:00,71.2,68.8,29.83,SSE,158,11.5,11.5,92,0.06,CLR,,0.16,WeatherDisplay:10.37,2013-02-23 00:32:00,
2013-02-23 11:37:00,71.4,69.0,29.83,South,180,8.1,9.8,92,0.06,CLR,,0.16,WeatherDisplay:10.37,2013-02-23 00:37:00,
2013-02-23 11:42:00,71.4,69.0,29.83,ESE,112,13.8,13.8,92,0.06,CLR,,0.16,WeatherDisplay:10.37,2013-02-23 00:42:00,
2013-02-23 11:47:00,71.4,68.7,29.83,SE,135,15.0,15.0,91,0.06,CLR,,0.16,WeatherDisplay:10.37,2013-02-23 00:47:00,
2013-02-23 11:52:00,71.4,69.0,29.83,ESE,112,18.4,18.4,92,0.06,CLR,,0.16,WeatherDisplay:10.37,2013-02-23 00:52:00,
2013-02-23 11:57:00,71.4,69.0,29.82,SSE,158,17.3,17.3,92,0.06,CLR,,0.16,WeatherDisplay:10.37,2013-02-23 00:57:00,
2013-02-23 12:02:00,71.4,69.0,29.82,SE,135,12.7,12.7,92,0.06,CLR,,0.16,WeatherDisplay:10.37,2013-02-23 01:02:00,
2013-02-23 12:07:00,71.4,69.0,29.81,East,90,16.1,16.1,92,0.06,RA,,0.20,WeatherDisplay:10.37,2013-02-23 01:07:00,
2013-02-23 12:12:00,71.4,69.0,29.81,SE,135,16.1,16.1,92,0.08,RA,,0.26,WeatherDisplay:10.37,2013-02-23 01:12:00,
2013-02-23 12:17:00,71.2,68.8,29.81,ESE,112,21.9,21.9,92,0.14,RA,,0.33,WeatherDisplay:10.37,2013-02-23 01:17:00,
2013-02-23 12:22:00,71.2,68.8,29.81,ESE,112,12.7,12.7,92,0.18,RA,,0.35,WeatherDisplay:10.37,2013-02-23 01:22:00,
2013-02-23 12:27:00,71.2,68.8,29.81,ENE,68,12.7,12.7,92,0.20,RA,,0.37,WeatherDisplay:10.37,2013-02-23 01:27:00,
2013-02-23 12:32:00,71.2,68.8,29.80,ESE,112,20.3,20.3,92,0.25,RA,,0.41,WeatherDisplay:10.37,2013-02-23 01:32:00,
2013-02-23 12:37:00,71.2,68.8,29.80,ENE,68,13.8,13.8,92,0.27,RA,,0.43,WeatherDisplay:10.37,2013-02-23 01:37:00,
2013-02-23 12:42:00,71.1,68.6,29.80,SE,135,15.0,15.0,92,0.31,RA,,0.47,WeatherDisplay:10.37,2013-02-23 01:42:00,
2013-02-23 12:47:00,71.2,68.8,29.80,SE,135,14.1,14.1,92,0.33,RA,,0.51,WeatherDisplay:10.37,2013-02-23 01:47:00,
2013-02-23 12:52:00,71.2,68.8,29.79,SSE,158,11.5,11.5,92,0.41,RA,,0.57,WeatherDisplay:10.37,2013-02-23 01:52:00,
2013-02-23 12:57:00,71.2,68.8,29.79,ESE,112,9.8,9.8,92,0.41,RA,,0.59,WeatherDisplay:10.37,2013-02-23 01:57:00,
2013-02-23 13:02:00,71.2,68.8,29.80,ESE,112,13.8,13.8,92,0.43,RA,,0.61,WeatherDisplay:10.37,2013-02-23 02:02:00,
2013-02-23 13:07:00,71.4,69.0,29.79,East,90,14.3,14.3,92,0.51,RA,,0.67,WeatherDisplay:10.37,2013-02-23 02:07:00,
2013-02-23 13:12:00,71.6,69.5,29.79,ESE,112,12.7,12.7,93,0.43,RA,,0.67,WeatherDisplay:10.37,2013-02-23 02:12:00,
2013-02-23 13:17:00,72.0,69.8,29.79,NE,45,17.3,17.3,93,0.37,CLR,,0.67,WeatherDisplay:10.37,2013-02-23 02:17:00,
2013-02-23 13:22:00,72.1,70.0,29.78,East,90,11.4,12.3,93,0.33,CLR,,0.67,WeatherDisplay:10.37,2013-02-23 02:22:00,
2013-02-23 13:27:00,72.7,70.5,29.79,NE,45,16.1,16.1,93,0.31,CLR,,0.67,WeatherDisplay:10.37,2013-02-23 02:27:00,
2013-02-23 13:32:00,73.0,70.9,29.78,ESE,112,10.4,10.4,93,0.28,CLR,,0.67,WeatherDisplay:10.37,2013-02-23 02:32:00,
2013-02-23 13:37:00,73.2,71.1,29.78,East,90,11.5,11.5,93,0.24,CLR,,0.67,WeatherDisplay:10.37,2013-02-23 02:37:00,
2013-02-23 13:42:00,73.4,70.9,29.78,ESE,112,12.7,12.7,92,0.20,CLR,,0.67,WeatherDisplay:10.37,2013-02-23 02:42:00,
2013-02-23 13:47:00,73.4,70.9,29.77,ESE,112,19.4,19.4,92,0.20,CLR,,0.67,WeatherDisplay:10.37,2013-02-23 02:47:00,
2013-02-23 13:52:00,73.4,70.9,29.77,ESE,112,18.4,18.4,92,0.10,CLR,,0.67,WeatherDisplay:10.37,2013-02-23 02:52:00,
2013-02-23 13:57:00,73.8,71.3,29.77,ESE,112,10.4,10.4,92,0.08,CLR,,0.67,WeatherDisplay:10.37,2013-02-23 02:57:00,
2013-02-23 14:02:00,73.9,71.1,29.77,East,90,16.1,16.1,91,0.06,CLR,,0.67,WeatherDisplay:10.37,2013-02-23 03:02:00,
2013-02-23 14:07:00,73.8,71.0,29.77,East,90,17.3,17.3,91,0.00,CLR,,0.67,WeatherDisplay:10.37,2013-02-23 03:07:00,
2013-02-23 14:12:00,73.8,70.6,29.76,ESE,112,16.3,16.3,90,0.00,CLR,,0.67,WeatherDisplay:10.37,2013-02-23 03:12:00,
2013-02-23 14:17:00,73.9,70.8,29.77,ESE,112,16.1,16.1,90,0.00,CLR,,0.67,WeatherDisplay:10.37,2013-02-23 03:17:00,
2013-02-23 14:22:00,74.1,71.0,29.76,ESE,112,18.4,18.4,90,0.00,CLR,,0.67,WeatherDisplay:10.37,2013-02-23 03:22:00,
2013-02-23 14:27:00,74.3,71.2,29.76,ESE,112,16.1,16.1,90,0.00,CLR,,0.67,WeatherDisplay:10.37,2013-02-23 03:27:00,
2013-02-23 14:32:00,74.3,70.8,29.75,East,90,16.1,16.1,89,0.00,CLR,,0.67,WeatherDisplay:10.37,2013-02-23 03:32:00,
2013-02-23 14:37:00,74.5,71.0,29.75,East,90,19.7,19.7,89,0.00,CLR,,0.67,WeatherDisplay:10.37,2013-02-23 03:37:00,
2013-02-23 14:42:00,74.5,71.0,29.76,SE,135,12.7,12.7,89,0.00,CLR,,0.67,WeatherDisplay:10.37,2013-02-23 03:42:00,
2013-02-23 14:47:00,74.3,70.8,29.75,ESE,112,16.1,16.1,89,0.00,CLR,,0.67,WeatherDisplay:10.37,2013-02-23 03:47:00,
2013-02-23 14:52:00,74.5,71.0,29.75,ESE,112,12.7,12.7,89,0.00,CLR,,0.67,WeatherDisplay:10.37,2013-02-23 03:52:00,
2013-02-23 14:57:00,74.7,71.2,29.75,East,90,6.9,6.9,89,0.00,CLR,,0.67,WeatherDisplay:10.37,2013-02-23 03:57:00,
2013-02-23 15:02:00,74.7,70.9,29.75,ESE,112,13.4,13.4,88,0.00,CLR,,0.67,WeatherDisplay:10.37,2013-02-23 04:02:00,
2013-02-23 15:07:00,74.5,70.7,29.74,ESE,112,15.0,15.0,88,0.00,CLR,,0.67,WeatherDisplay:10.37,2013-02-23 04:07:00,
2013-02-23 15:12:00,73.9,70.5,29.74,ESE,112,12.7,12.7,89,0.10,RA,,0.77,WeatherDisplay:10.37,2013-02-23 04:12:00,
2013-02-23 15:17:00,73.6,70.1,29.75,ESE,112,12.7,12.7,89,0.12,RA,,0.79,WeatherDisplay:10.37,2013-02-23 04:17:00,
2013-02-23 15:22:00,73.2,70.1,29.74,ESE,112,11.5,11.5,90,0.12,RA,,0.79,WeatherDisplay:10.37,2013-02-23 04:22:00,
2013-02-23 15:27:00,73.2,70.1,29.74,SE,135,6.9,6.9,90,0.14,RA,,0.81,WeatherDisplay:10.37,2013-02-23 04:27:00,
2013-02-23 15:32:00,73.2,70.1,29.74,SE,135,9.2,9.2,90,0.14,RA,,0.81,WeatherDisplay:10.37,2013-02-23 04:32:00,
2013-02-23 15:37:00,73.2,70.4,29.74,SE,135,13.8,13.8,91,0.14,CLR,,0.81,WeatherDisplay:10.37,2013-02-23 04:37:00,
2013-02-23 15:42:00,73.2,70.4,29.74,ESE,112,11.5,11.5,91,0.14,CLR,,0.81,WeatherDisplay:10.37,2013-02-23 04:42:00,
2013-02-23 15:47:00,73.2,70.4,29.74,ESE,112,6.9,6.9,91,0.14,CLR,,0.81,WeatherDisplay:10.37,2013-02-23 04:47:00,
2013-02-23 15:52:00,73.2,70.4,29.73,SSE,158,11.5,11.5,91,0.14,CLR,,0.81,WeatherDisplay:10.37,2013-02-23 04:52:00,
2013-02-23 15:57:00,73.4,70.6,29.73,East,90,6.9,6.9,91,0.14,CLR,,0.81,WeatherDisplay:10.37,2013-02-23 04:57:00,
2013-02-23 16:00:00,73.2,70.4,29.74,South,180,4.6,4.6,91,0.14,CLR,,0.81,WeatherDisplay:10.37,2013-02-23 05:00:00,
2013-02-23 16:01:00,73.2,70.4,29.74,SSE,158,11.5,11.5,91,0.16,RA,,0.83,WeatherDisplay:10.37,2013-02-23 05:01:00,
2013-02-23 16:06:00,73.2,70.4,29.73,SSE,158,8.1,8.1,91,0.18,RA,,0.85,WeatherDisplay:10.37,2013-02-23 05:06:00,
2013-02-23 16:11:00,73.2,70.4,29.73,SE,135,5.8,5.8,91,0.18,RA,,0.85,WeatherDisplay:10.37,2013-02-23 05:11:00,
2013-02-23 16:16:00,73.2,70.4,29.73,ESE,112,9.2,9.2,91,0.06,CLR,,0.85,WeatherDisplay:10.37,2013-02-23 05:16:00,
2013-02-23 16:21:00,73.2,70.4,29.73,NNE,22,12.7,12.7,91,0.06,CLR,,0.85,WeatherDisplay:10.37,2013-02-23 05:21:00,
2013-02-23 16:26:00,73.2,70.4,29.73,ESE,112,12.7,12.7,91,0.04,CLR,,0.85,WeatherDisplay:10.37,2013-02-23 05:26:00,
2013-02-23 16:31:00,73.6,70.8,29.73,East,90,12.7,12.7,91,0.04,CLR,,0.85,WeatherDisplay:10.37,2013-02-23 05:31:00,
2013-02-23 16:36:00,73.8,71.0,29.72,ENE,68,13.0,13.0,91,0.04,CLR,,0.85,WeatherDisplay:10.37,2013-02-23 05:36:00,
2013-02-23 16:41:00,73.9,71.1,29.72,East,90,14.7,14.7,91,0.04,CLR,,0.85,WeatherDisplay:10.37,2013-02-23 05:41:00,
2013-02-23 16:47:00,74.1,71.3,29.72,ESE,112,16.1,16.1,91,0.04,CLR,,0.85,WeatherDisplay:10.37,2013-02-23 05:47:00,
2013-02-23 16:52:00,74.1,71.3,29.72,SE,135,12.7,12.7,91,0.04,CLR,,0.85,WeatherDisplay:10.37,2013-02-23 05:52:00,
2013-02-23 16:57:00,74.1,71.0,29.73,SE,135,10.4,10.4,90,0.04,CLR,,0.85,WeatherDisplay:10.37,2013-02-23 05:57:00,
2013-02-23 17:02:00,74.1,71.0,29.72,SE,135,11.5,11.5,90,0.02,CLR,,0.85,WeatherDisplay:10.37,2013-02-23 06:02:00,
2013-02-23 17:07:00,74.1,71.0,29.72,SE,135,13.8,13.8,90,0.00,CLR,,0.85,WeatherDisplay:10.37,2013-02-23 06:07:00,
2013-02-23 17:12:00,74.1,71.0,29.72,East,90,21.7,21.7,90,0.00,CLR,,0.85,WeatherDisplay:10.37,2013-02-23 06:12:00,
2013-02-23 17:17:00,73.9,70.5,29.72,SE,135,10.4,10.4,89,0.00,CLR,,0.85,WeatherDisplay:10.37,2013-02-23 06:17:00,
2013-02-23 17:22:00,73.9,70.5,29.72,East,90,11.5,11.5,89,0.00,CLR,,0.85,WeatherDisplay:10.37,2013-02-23 06:22:00,
2013-02-23 17:27:00,73.9,70.5,29.72,East,90,11.5,11.5,89,0.00,CLR,,0.85,WeatherDisplay:10.37,2013-02-23 06:27:00,
2013-02-23 17:32:00,73.9,70.8,29.72,SSE,158,17.3,17.3,90,0.00,CLR,,0.85,WeatherDisplay:10.37,2013-02-23 06:32:00,
2013-02-23 17:37:00,73.6,70.5,29.72,ENE,68,13.8,13.8,90,0.02,RA,,0.87,WeatherDisplay:10.37,2013-02-23 06:37:00,
2013-02-23 17:42:00,73.4,70.3,29.72,ENE,68,17.3,17.3,90,0.04,RA,,0.89,WeatherDisplay:10.37,2013-02-23 06:42:00,
2013-02-23 17:47:00,73.2,70.1,29.72,ESE,112,16.1,16.1,90,0.04,RA,,0.89,WeatherDisplay:10.37,2013-02-23 06:47:00,
2013-02-23 17:52:00,73.2,70.4,29.72,East,90,16.1,16.1,91,0.06,RA,,0.91,WeatherDisplay:10.37,2013-02-23 06:52:00,
2013-02-23 17:57:00,73.2,70.4,29.72,ESE,112,16.1,16.1,91,0.08,RA,,0.94,WeatherDisplay:10.37,2013-02-23 06:57:00,
2013-02-23 18:02:00,73.0,70.3,29.72,ESE,112,15.0,15.0,91,0.10,RA,,0.96,WeatherDisplay:10.37,2013-02-23 07:02:00,
2013-02-23 18:07:00,73.0,70.3,29.71,ESE,112,17.3,17.3,91,0.12,RA,,0.98,WeatherDisplay:10.37,2013-02-23 07:07:00,
2013-02-23 18:12:00,73.0,70.3,29.72,East,90,17.3,17.3,91,0.20,RA,,1.06,WeatherDisplay:10.37,2013-02-23 07:12:00,
2013-02-23 18:17:00,72.9,70.1,29.71,SE,135,20.7,20.7,91,0.24,RA,,1.10,WeatherDisplay:10.37,2013-02-23 07:17:00,
2013-02-23 18:22:00,72.9,70.1,29.71,SSE,158,13.8,13.8,91,0.26,RA,,1.12,WeatherDisplay:10.37,2013-02-23 07:22:00,
2013-02-23 18:27:00,72.7,69.9,29.72,NNE,22,20.7,20.7,91,0.28,RA,,1.14,WeatherDisplay:10.37,2013-02-23 07:27:00,
2013-02-23 18:32:00,72.7,69.9,29.71,ESE,112,13.8,13.8,91,0.28,RA,,1.14,WeatherDisplay:10.37,2013-02-23 07:32:00,
2013-02-23 18:37:00,72.7,70.2,29.72,East,90,20.7,20.7,92,0.31,RA,,1.18,WeatherDisplay:10.37,2013-02-23 07:37:00,
2013-02-23 18:42:00,72.7,70.2,29.71,ENE,68,18.4,18.4,92,0.33,RA,,1.22,WeatherDisplay:10.37,2013-02-23 07:42:00,
2013-02-23 18:47:00,72.7,70.2,29.71,ESE,112,16.1,16.1,92,0.39,RA,,1.28,WeatherDisplay:10.37,2013-02-23 07:47:00,
2013-02-23 18:52:00,72.7,70.2,29.71,SE,135,18.4,18.4,92,0.37,RA,,1.28,WeatherDisplay:10.37,2013-02-23 07:52:00,
2013-02-23 18:57:00,72.7,70.2,29.70,ESE,112,20.7,20.7,92,0.37,RA,,1.30,WeatherDisplay:10.37,2013-02-23 07:57:00,
2013-02-23 19:02:00,72.7,70.2,29.70,ENE,68,18.4,18.4,92,0.37,RA,,1.32,WeatherDisplay:10.37,2013-02-23 08:02:00,
2013-02-23 19:07:00,72.7,70.2,29.71,East,90,16.1,16.1,92,0.43,RA,,1.42,WeatherDisplay:10.37,2013-02-23 08:07:00,
2013-02-23 19:13:00,72.5,70.0,29.72,East,90,26.5,26.5,92,0.43,RA,,1.51,WeatherDisplay:10.37,2013-02-23 08:13:00,
2013-02-23 19:18:00,72.1,69.4,29.73,ENE,68,23.0,23.0,91,0.43,RA,,1.53,WeatherDisplay:10.37,2013-02-23 08:18:00,
2013-02-23 19:23:00,71.8,68.7,29.73,NNE,22,19.6,19.6,90,0.43,RA,,1.55,WeatherDisplay:10.37,2013-02-23 08:23:00,
2013-02-23 19:28:00,71.4,68.3,29.73,SSE,158,6.3,6.3,90,0.47,RA,,1.61,WeatherDisplay:10.37,2013-02-23 08:28:00,
2013-02-23 19:33:00,71.2,68.2,29.73,ENE,68,11.5,11.5,90,0.49,RA,,1.63,WeatherDisplay:10.37,2013-02-23 08:33:00,
2013-02-23 19:38:00,71.2,68.2,29.73,ENE,68,13.8,13.8,90,0.47,RA,,1.65,WeatherDisplay:10.37,2013-02-23 08:38:00,
2013-02-23 19:43:00,71.2,68.5,29.73,SE,135,18.4,18.4,91,0.43,RA,,1.65,WeatherDisplay:10.37,2013-02-23 08:43:00,
2013-02-23 19:48:00,71.4,68.7,29.73,ENE,69,12.7,12.7,91,0.37,CLR,,1.65,WeatherDisplay:10.37,2013-02-23 08:48:00,
2013-02-23 19:53:00,71.4,68.7,29.73,ENE,68,12.7,12.7,91,0.37,CLR,,1.65,WeatherDisplay:10.37,2013-02-23 08:53:00,
2013-02-23 19:58:00,71.6,68.8,29.73,ESE,112,6.9,6.9,91,0.35,CLR,,1.65,WeatherDisplay:10.37,2013-02-23 08:58:00,
2013-02-23 20:03:00,71.8,69.0,29.73,NE,45,15.0,15.0,91,0.33,CLR,,1.65,WeatherDisplay:10.37,2013-02-23 09:03:00,
2013-02-23 20:08:00,71.8,69.0,29.73,NE,45,16.1,16.1,91,0.25,CLR,,1.65,WeatherDisplay:10.37,2013-02-23 09:08:00,
2013-02-23 20:13:00,71.8,69.0,29.73,ENE,68,15.0,15.0,91,0.16,CLR,,1.65,WeatherDisplay:10.37,2013-02-23 09:13:00,
2013-02-23 20:18:00,71.8,69.0,29.73,East,90,13.4,13.4,91,0.12,CLR,,1.65,WeatherDisplay:10.37,2013-02-23 09:18:00,
2013-02-23 20:23:00,71.8,69.0,29.73,East,90,15.0,15.0,91,0.10,CLR,,1.65,WeatherDisplay:10.37,2013-02-23 09:23:00,
2013-02-23 20:28:00,71.8,69.0,29.74,ENE,68,18.4,18.4,91,0.04,CLR,,1.65,WeatherDisplay:10.37,2013-02-23 09:28:00,
2013-02-23 20:33:00,71.8,69.0,29.75,East,90,20.7,20.7,91,0.02,CLR,,1.65,WeatherDisplay:10.37,2013-02-23 09:33:00,
2013-02-23 20:38:00,71.8,69.0,29.75,ESE,112,15.0,15.0,91,0.00,CLR,,1.65,WeatherDisplay:10.37,2013-02-23 09:38:00,
2013-02-23 20:43:00,71.4,68.3,29.75,NE,45,12.7,12.7,90,0.00,CLR,,1.65,WeatherDisplay:10.37,2013-02-23 09:43:00,
2013-02-23 20:48:00,71.4,68.3,29.75,ESE,112,18.4,18.4,90,0.00,CLR,,1.65,WeatherDisplay:10.37,2013-02-23 09:48:00,
2013-02-23 20:53:00,71.2,68.2,29.75,ESE,112,16.1,16.1,90,0.00,CLR,,1.65,WeatherDisplay:10.37,2013-02-23 09:53:00,
2013-02-23 20:58:00,71.2,68.2,29.75,NE,45,17.3,17.3,90,0.00,CLR,,1.65,WeatherDisplay:10.37,2013-02-23 09:58:00,
2013-02-23 21:03:00,71.2,68.2,29.76,ESE,112,16.1,16.1,90,0.00,CLR,,1.65,WeatherDisplay:10.37,2013-02-23 10:03:00,
2013-02-23 21:08:00,70.9,67.8,29.76,ESE,112,19.6,19.6,90,0.02,RA,,1.67,WeatherDisplay:10.37,2013-02-23 10:08:00,
2013-02-23 21:13:00,70.9,67.8,29.77,NNE,22,18.4,18.4,90,0.02,RA,,1.69,WeatherDisplay:10.37,2013-02-23 10:13:00,
2013-02-23 21:18:00,70.9,67.8,29.77,East,90,11.5,11.5,90,0.14,RA,,1.79,WeatherDisplay:10.37,2013-02-23 10:18:00,
2013-02-23 21:23:00,70.7,67.6,29.76,ENE,68,15.0,15.0,90,0.24,RA,,1.89,WeatherDisplay:10.37,2013-02-23 10:23:00,
2013-02-23 21:28:00,70.7,67.9,29.76,ESE,112,9.2,9.2,91,0.24,RA,,1.89,WeatherDisplay:10.37,2013-02-23 10:28:00,
2013-02-23 21:33:00,70.9,68.1,29.76,ESE,112,12.7,12.7,91,0.26,RA,,1.91,WeatherDisplay:10.37,2013-02-23 10:33:00,
2013-02-23 21:38:00,70.9,68.1,29.76,East,90,11.5,11.5,91,0.26,RA,,1.91,WeatherDisplay:10.37,2013-02-23 10:38:00,
2013-02-23 21:43:00,70.9,68.1,29.76,East,90,8.1,8.1,91,0.26,CLR,,1.91,WeatherDisplay:10.37,2013-02-23 10:43:00,
2013-02-23 21:48:00,71.1,68.6,29.75,SE,135,8.1,8.1,92,0.26,CLR,,1.91,WeatherDisplay:10.37,2013-02-23 10:48:00,
2013-02-23 21:53:00,71.2,68.8,29.75,ESE,112,8.1,8.1,92,0.26,CLR,,1.91,WeatherDisplay:10.37,2013-02-23 10:53:00,
2013-02-23 21:58:00,71.2,68.8,29.75,ENE,68,7.2,7.2,92,0.26,CLR,,1.91,WeatherDisplay:10.37,2013-02-23 10:58:00,
2013-02-23 22:03:00,71.2,68.8,29.75,East,90,12.3,12.3,92,0.26,CLR,,1.91,WeatherDisplay:10.37,2013-02-23 11:03:00,
2013-02-23 22:08:00,71.2,68.8,29.75,ESE,112,6.9,6.9,92,0.24,CLR,,1.91,WeatherDisplay:10.37,2013-02-23 11:08:00,
2013-02-23 22:13:00,71.2,68.8,29.75,East,90,4.6,4.7,92,0.24,CLR,,1.91,WeatherDisplay:10.37,2013-02-23 11:13:00,
2013-02-23 22:18:00,71.2,68.8,29.75,ENE,68,11.5,11.5,92,0.12,CLR,,1.91,WeatherDisplay:10.37,2013-02-23 11:18:00,
2013-02-23 22:23:00,71.2,68.8,29.75,ENE,68,4.6,4.6,92,0.02,CLR,,1.91,WeatherDisplay:10.37,2013-02-23 11:23:00,
2013-02-23 22:28:00,71.2,68.8,29.75,ENE,68,4.6,4.6,92,0.02,CLR,,1.91,WeatherDisplay:10.37,2013-02-23 11:28:00,
2013-02-23 22:33:00,71.4,69.0,29.75,East,90,6.9,6.9,92,0.00,CLR,,1.91,WeatherDisplay:10.37,2013-02-23 11:33:00,
2013-02-23 22:38:00,71.2,68.8,29.76,SE,135,4.6,4.6,92,0.00,CLR,,1.91,WeatherDisplay:10.37,2013-02-23 11:38:00,
2013-02-23 22:43:00,71.4,69.0,29.76,ENE,68,4.5,4.5,92,0.00,CLR,,1.91,WeatherDisplay:10.37,2013-02-23 11:43:00,
2013-02-23 22:48:00,71.4,69.0,29.76,East,90,8.1,8.1,92,0.00,CLR,,1.91,WeatherDisplay:10.37,2013-02-23 11:48:00,
2013-02-23 22:53:00,71.4,69.0,29.76,North,0,11.5,11.5,92,0.00,CLR,,1.91,WeatherDisplay:10.37,2013-02-23 11:53:00,
2013-02-23 22:58:00,71.4,69.0,29.76,SE,135,4.6,4.6,92,0.00,CLR,,1.91,WeatherDisplay:10.37,2013-02-23 11:58:00,
2013-02-23 23:03:00,71.4,69.0,29.76,ENE,68,6.9,6.9,92,0.00,CLR,,1.91,WeatherDisplay:10.37,2013-02-23 12:03:00,
2013-02-23 23:08:00,71.4,69.0,29.76,East,90,4.6,4.6,92,0.00,CLR,,1.91,WeatherDisplay:10.37,2013-02-23 12:08:00,
2013-02-23 23:13:00,71.4,69.0,29.76,SE,135,3.5,3.5,92,0.00,CLR,,1.91,WeatherDisplay:10.37,2013-02-23 12:13:00,
2013-02-23 23:18:00,71.4,69.0,29.76,SE,135,3.5,0.0,92,0.00,CLR,,1.91,WeatherDisplay:10.37,2013-02-23 12:18:00,
2013-02-23 23:23:00,71.4,69.0,29.77,NE,45,1.8,1.8,92,0.00,CLR,,1.91,WeatherDisplay:10.37,2013-02-23 12:23:00,
2013-02-23 23:28:00,71.4,69.0,29.77,NNW,338,3.5,3.5,92,0.00,CLR,,1.91,WeatherDisplay:10.37,2013-02-23 12:28:00,
2013-02-23 23:33:00,71.4,69.0,29.77,ENE,68,1.1,1.1,92,0.00,CLR,,1.91,WeatherDisplay:10.37,2013-02-23 12:33:00,
2013-02-23 23:38:00,71.6,69.2,29.77,East,90,0.9,0.9,92,0.00,CLR,,1.91,WeatherDisplay:10.37,2013-02-23 12:38:00,
2013-02-23 23:43:00,71.6,69.2,29.77,ENE,68,2.3,2.3,92,0.00,CLR,,1.91,WeatherDisplay:10.37,2013-02-23 12:43:00,
2013-02-23 23:48:00,71.6,69.2,29.77,NE,45,2.3,2.6,92,0.00,CLR,,1.91,WeatherDisplay:10.37,2013-02-23 12:48:00,
2013-02-23 23:53:00,71.6,69.2,29.78,East,90,2.3,2.3,92,0.00,CLR,,1.91,WeatherDisplay:10.37,2013-02-23 12:53:00,
2013-02-23 23:58:00,71.8,69.3,29.78,NE,45,2.3,2.3,92,0.00,CLR,,1.91,WeatherDisplay:10.37,2013-02-23 12:58:00,